Date String (YYYY-MM-DD hh:mm:ss) UTC,Instrument flags,absolute air pressure of the measurement (hPa),sample flow rate (lpm),inlet stack bypass flow (lpm),air temperature of the measurement (°C),ambient temperature measured by the external sensor (°C),aerosol sample conditioner tube jacket temperature (°C),OPC LED temperature (°C),internal box temperature (°C),relative humidity of the measurement (%),span deviation,mass concentration of particles derived from Lorenz-Mie calculation of OPC scattering (μg/m³),mass concentration of particles derived from Lorenz-Mie calculation of OPC scattering (μg/m³),mass concentration of particles derived from Lorenz-Mie calculation of OPC scattering (μg/m³)
DateTimeUTC,F1_M11,P_M11,Q1_M11,Q2_M11,T1_M11,T2_M11,T3_M11,T4_M11,T5_M11,U1_M11,ZSPAN_M11,X0_M11,X2_M11,X1_M11
2023-10-24 01:00:00,SystemResetWarning,0821.9,5.00,000.00,028.2,026.6,000.0,036.7,030.0,13.9,0000.0,0036.35,0006.97,0004.49
2023-10-24 01:01:00,SystemResetWarning,0821.9,5.00,000.00,028.3,026.8,000.0,036.7,030.1,13.8,0000.5,0034.99,0006.85,0004.48
2023-10-24 01:02:00,SystemResetWarning,0822.0,5.00,000.00,028.3,027.0,000.0,036.7,030.1,13.8,0000.9,0033.74,0006.76,0004.48
2023-10-24 01:03:00,SystemResetWarning,0822.0,5.00,000.00,028.4,027.2,000.0,036.7,030.2,13.7,0001.2,0032.55,0006.68,0004.47
2023-10-24 01:04:00,SystemResetWarning,0821.9,5.01,000.00,028.4,027.3,000.0,036.7,030.2,13.7,0000.0,0033.09,0006.58,0004.46
2023-10-24 01:05:00,SystemResetWarning,0822.0,5.00,000.00,028.4,027.4,000.0,036.8,030.3,13.7,0000.0,0033.12,0006.48,0004.45
2023-10-24 01:06:00,SystemResetWarning,0821.9,4.98,000.00,028.5,026.6,000.0,036.8,030.3,13.7,0000.0,0032.61,0006.51,0004.45
2023-10-24 01:07:00,SystemResetWarning,0821.9,5.01,000.00,028.4,025.0,000.0,036.7,030.0,13.8,0000.0,0031.44,0006.55,0004.46
2023-10-24 01:08:00,SystemResetWarning,0822.0,5.01,000.00,028.3,024.6,000.0,036.7,029.9,13.9,0000.4,0030.67,0006.56,0004.45
2023-10-24 01:09:00,SystemResetWarning,0821.9,5.00,000.00,028.2,024.8,000.0,036.7,029.7,14.0,0003.4,0029.92,0006.59,0004.44
2023-10-24 01:10:00,SystemResetWarning,0822.0,5.00,000.00,028.2,025.2,000.0,036.7,029.7,14.0,0003.5,0029.35,0006.61,0004.42
2023-10-24 01:11:00,SystemResetWarning,0822.0,5.00,000.00,028.2,025.6,000.0,036.7,029.8,14.0,0000.8,0029.45,0006.63,0004.41
2023-10-24 01:12:00,SystemResetWarning,0822.0,5.00,000.00,028.2,025.9,000.0,036.7,029.9,14.0,0000.0,0029.51,0006.65,0004.42
2023-10-24 01:13:00,SystemResetWarning,0822.0,5.00,000.00,028.2,026.2,000.0,036.7,029.9,14.0,0000.0,0030.05,0006.71,0004.41
2023-10-24 01:14:00,SystemResetWarning,0822.0,5.00,000.00,028.2,026.5,000.0,036.7,030.0,13.9,0000.0,0033.14,0006.73,0004.41
2023-10-24 01:15:00,SystemResetWarning,0822.0,5.00,000.00,028.2,026.7,000.0,036.7,030.0,14.0,0000.0,0032.72,0006.74,0004.41
2023-10-24 01:16:00,SystemResetWarning,0822.0,5.00,000.00,028.3,026.9,000.0,036.7,030.1,14.0,0000.0,0032.67,0006.73,0004.40
2023-10-24 01:17:00,SystemResetWarning,0822.0,5.00,000.00,028.3,027.0,000.0,036.7,030.2,13.9,0000.0,0032.80,0006.67,0004.38
2023-10-24 01:18:00,SystemResetWarning,0822.1,5.00,000.00,028.4,027.2,000.0,036.8,030.2,13.9,0000.0,0033.92,0006.61,0004.38
2023-10-24 01:19:00,SystemResetWarning,0822.1,5.00,000.00,028.4,027.3,000.0,036.8,030.2,13.9,0000.0,0035.38,0006.64,0004.39
2023-10-24 01:20:00,SystemResetWarning,0822.1,5.00,000.00,028.4,027.4,000.0,036.8,030.3,13.8,0000.0,0035.88,0006.60,0004.38
2023-10-24 01:21:00,SystemResetWarning,0822.0,4.99,000.00,028.5,026.4,000.0,036.8,030.2,13.8,0000.0,0035.04,0006.60,0004.39
2023-10-24 01:22:00,SystemResetWarning,0822.0,5.01,000.00,028.4,024.8,000.0,036.7,030.0,13.9,0000.0,0035.02,0006.62,0004.39
2023-10-24 01:23:00,SystemResetWarning,0822.0,5.01,000.00,028.3,024.5,000.0,036.7,029.9,13.9,0000.0,0034.26,0006.60,0004.39
2023-10-24 01:24:00,SystemResetWarning,0822.0,4.99,000.00,028.2,024.8,000.0,036.7,029.7,14.0,0001.9,0033.43,0006.56,0004.39
2023-10-24 01:25:00,SystemResetWarning,0822.0,5.00,000.00,028.2,025.1,000.0,036.7,029.7,14.0,0000.0,0030.10,0006.63,0004.40
2023-10-24 01:26:00,SystemResetWarning,0822.0,5.00,000.00,028.2,025.5,000.0,036.7,029.8,14.1,0000.0,0030.08,0006.66,0004.40
2023-10-24 01:27:00,SystemResetWarning,0822.0,5.01,000.00,028.2,025.9,000.0,036.7,029.9,14.2,0000.0,0029.46,0006.76,0004.41
2023-10-24 01:28:00,SystemResetWarning,0822.0,5.00,000.00,028.2,026.2,000.0,036.7,029.9,14.1,0000.0,0030.74,0006.79,0004.42
2023-10-24 01:29:00,SystemResetWarning,0822.0,5.00,000.00,028.2,026.4,000.0,036.7,030.0,14.1,0002.1,0030.70,0006.79,0004.42
2023-10-24 01:30:00,SystemResetWarning,0822.1,5.00,000.00,028.2,026.6,000.0,036.7,030.0,14.1,0002.0,0029.75,0006.79,0004.42
2023-10-24 01:31:00,SystemResetWarning,0822.1,5.00,000.00,028.3,026.8,000.0,036.7,030.0,14.0,0001.5,0029.97,0006.77,0004.43
2023-10-24 01:32:00,SystemResetWarning,0822.1,4.99,000.00,028.3,027.0,000.0,036.7,030.1,14.0,0000.0,0031.17,0006.74,0004.44
2023-10-24 01:33:00,SystemResetWarning,0822.1,5.00,000.00,028.3,027.1,000.0,036.8,030.2,13.9,0000.0,0030.61,0006.74,0004.44
2023-10-24 01:34:00,SystemResetWarning,0822.1,4.99,000.00,028.4,027.2,000.0,036.8,030.2,13.9,0000.0,0030.10,0006.78,0004.44
2023-10-24 01:35:00,SystemResetWarning,0822.1,5.00,000.00,028.4,027.3,000.0,036.8,030.2,13.8,0000.0,0029.72,0006.81,0004.43
2023-10-24 01:36:00,SystemResetWarning,0822.1,5.00,000.00,028.5,027.1,000.0,036.8,030.3,13.8,0000.0,0030.13,0006.67,0004.42
2023-10-24 01:37:00,SystemResetWarning,0822.1,5.00,000.00,028.4,025.3,000.0,036.8,030.1,13.8,0000.0,0029.75,0006.63,0004.42
2023-10-24 01:38:00,SystemResetWarning,0822.0,5.00,000.00,028.4,024.5,000.0,036.7,030.0,13.9,0000.0,0029.07,0006.59,0004.42
2023-10-24 01:39:00,SystemResetWarning,0822.0,5.01,000.00,028.3,024.6,000.0,036.7,029.8,13.9,0000.0,0028.80,0006.57,0004.42
2023-10-24 01:40:00,SystemResetWarning,0822.0,5.01,000.00,028.2,024.9,000.0,036.7,029.7,14.0,0000.0,0027.72,0006.60,0004.42
2023-10-24 01:41:00,SystemResetWarning,0822.0,4.99,000.00,028.2,025.3,000.0,036.7,029.8,14.1,0000.0,0026.89,0006.52,0004.42
2023-10-24 01:42:00,SystemResetWarning,0822.0,5.00,000.00,028.2,025.6,000.0,036.7,029.8,14.1,0000.0,0025.64,0006.53,0004.41
2023-10-24 01:43:00,SystemResetWarning,0822.1,4.99,000.00,028.2,025.9,000.0,036.7,029.9,14.1,0000.0,0024.72,0006.55,0004.40
2023-10-24 01:44:00,SystemResetWarning,0822.0,5.00,000.00,028.2,026.2,000.0,036.7,029.9,14.1,0000.0,0024.73,0006.55,0004.40
2023-10-24 01:45:00,SystemResetWarning,0822.0,5.00,000.00,028.2,026.5,000.0,036.7,029.9,14.1,0000.0,0026.62,0006.53,0004.40
2023-10-24 01:46:00,SystemResetWarning,0822.1,5.00,000.00,028.2,026.7,000.0,036.7,030.0,14.1,0001.5,0029.40,0006.45,0004.41
2023-10-24 01:47:00,SystemResetWarning,0822.1,5.00,000.00,028.3,026.8,000.0,036.7,030.0,14.1,0003.3,0030.59,0006.46,0004.41
2023-10-24 01:48:00,SystemResetWarning,0822.1,5.01,000.00,028.3,027.0,000.0,036.7,030.1,14.1,0003.3,0031.31,0006.44,0004.41
2023-10-24 01:49:00,SystemResetWarning,0822.1,5.00,000.00,028.3,027.1,000.0,036.7,030.1,14.1,0002.4,0032.05,0006.46,0004.41
2023-10-24 01:50:00,SystemResetWarning,0822.1,4.99,000.00,028.4,027.2,000.0,036.8,030.2,14.0,0000.0,0032.15,0006.55,0004.41
2023-10-24 01:51:00,SystemResetWarning,0822.1,5.02,000.00,028.4,027.3,000.0,036.8,030.2,14.0,0000.0,0032.85,0006.58,0004.43
2023-10-24 01:52:00,SystemResetWarning,0822.1,5.01,000.00,028.4,027.3,000.0,036.8,030.3,13.9,0000.0,0032.67,0006.57,0004.43
2023-10-24 01:53:00,SystemResetWarning,0822.1,5.00,000.00,028.5,027.2,000.0,036.8,030.3,13.8,0000.0,0032.81,0006.59,0004.45
2023-10-24 01:54:00,SystemResetWarning,0822.1,4.98,000.00,028.4,025.4,000.0,036.8,030.1,13.8,0000.0,0031.68,0006.61,0004.46
2023-10-24 01:55:00,SystemResetWarning,0822.1,5.02,000.00,028.4,024.5,000.0,036.7,029.9,13.8,0000.0,0033.20,0006.58,0004.45
2023-10-24 01:56:00,SystemResetWarning,0822.1,5.01,000.00,028.3,024.5,000.0,036.7,029.7,13.9,0000.0,0032.69,0006.55,0004.46
2023-10-24 01:57:00,SystemResetWarning,0822.1,5.00,000.00,028.2,024.8,000.0,036.7,029.7,14.0,0000.0,0030.11,0006.61,0004.47
2023-10-24 01:58:00,SystemResetWarning,0822.1,5.00,000.00,028.2,025.2,000.0,036.7,029.8,14.0,0000.0,0028.22,0006.66,0004.49
2023-10-24 01:59:00,SystemResetWarning,0822.1,5.00,000.00,028.1,025.6,000.0,036.7,029.8,14.1,0000.0,0028.50,0006.75,0004.50
